Year,Month,Day,Hour,Minute,Value (Times are PST for temperature in C)
2014,05,17,00,00,14.00
2014,05,17,00,01,14.00
2014,05,17,00,02,14.00
2014,05,17,00,03,13.90
2014,05,17,00,04,13.90
2014,05,17,00,05,13.90
2014,05,17,00,06,13.90
2014,05,17,00,07,14.00
2014,05,17,00,08,14.00
2014,05,17,00,09,14.00
2014,05,17,00,10,14.00
2014,05,17,00,11,14.10
2014,05,17,00,12,14.10
2014,05,17,00,13,14.10
2014,05,17,00,14,14.10
2014,05,17,00,15,14.10
2014,05,17,00,16,14.10
2014,05,17,00,17,14.10
2014,05,17,00,18,14.10
2014,05,17,00,19,14.10
2014,05,17,00,20,14.20
2014,05,17,00,21,14.20
2014,05,17,00,22,14.20
2014,05,17,00,23,14.20
2014,05,17,00,24,14.20
2014,05,17,00,25,14.30
2014,05,17,00,26,14.30
2014,05,17,00,27,14.30
2014,05,17,00,28,14.30
2014,05,17,00,29,14.30
2014,05,17,00,30,14.30
2014,05,17,00,31,14.30
2014,05,17,00,32,14.30
2014,05,17,00,33,14.30
2014,05,17,00,34,14.30
2014,05,17,00,35,14.30
2014,05,17,00,36,14.30
2014,05,17,00,37,14.30
2014,05,17,00,38,14.30
2014,05,17,00,39,14.30
2014,05,17,00,40,14.30
2014,05,17,00,41,14.30
2014,05,17,00,42,14.30
2014,05,17,00,43,14.30
2014,05,17,00,44,14.30
2014,05,17,00,45,14.30
2014,05,17,00,46,14.30
2014,05,17,00,47,14.30
2014,05,17,00,48,14.30
2014,05,17,00,49,14.30
2014,05,17,00,50,14.30
2014,05,17,00,51,14.30
2014,05,17,00,52,14.30
2014,05,17,00,53,14.30
2014,05,17,00,54,14.30
2014,05,17,00,55,14.30
2014,05,17,00,56,14.30
2014,05,17,00,57,14.30
2014,05,17,00,58,14.30
2014,05,17,00,59,14.30
2014,05,17,01,00,14.30
2014,05,17,01,01,14.30
2014,05,17,01,02,14.30
2014,05,17,01,03,14.30
2014,05,17,01,04,14.30
2014,05,17,01,05,14.30
2014,05,17,01,06,14.30
2014,05,17,01,07,14.30
2014,05,17,01,08,14.30
2014,05,17,01,09,14.30
2014,05,17,01,10,14.30
2014,05,17,01,11,14.30
2014,05,17,01,12,14.30
2014,05,17,01,13,14.20
2014,05,17,01,14,14.20
2014,05,17,01,15,14.20
2014,05,17,01,16,14.20
2014,05,17,01,17,14.20
2014,05,17,01,18,14.20
2014,05,17,01,19,14.10
2014,05,17,01,20,14.10
2014,05,17,01,21,14.10
2014,05,17,01,22,14.10
2014,05,17,01,23,14.00
2014,05,17,01,24,14.00
2014,05,17,01,25,14.00
2014,05,17,01,26,14.00
2014,05,17,01,27,14.00
2014,05,17,01,28,14.00
2014,05,17,01,29,13.90
2014,05,17,01,30,13.90
2014,05,17,01,31,13.90
2014,05,17,01,32,13.90
2014,05,17,01,33,13.90
2014,05,17,01,34,13.80
2014,05,17,01,35,13.80
2014,05,17,01,36,13.80
2014,05,17,01,37,13.80
2014,05,17,01,38,13.70
2014,05,17,01,39,13.70
2014,05,17,01,40,13.70
2014,05,17,01,41,13.70
2014,05,17,01,42,13.70
2014,05,17,01,43,13.70
2014,05,17,01,44,13.60
2014,05,17,01,45,13.60
2014,05,17,01,46,13.60
2014,05,17,01,47,13.60
2014,05,17,01,48,13.60
2014,05,17,01,49,13.60
2014,05,17,01,50,13.60
2014,05,17,01,51,13.60
2014,05,17,01,52,13.60
2014,05,17,01,53,13.60
2014,05,17,01,54,13.50
2014,05,17,01,55,13.50
2014,05,17,01,56,13.50
2014,05,17,01,57,13.40
2014,05,17,01,58,13.40
2014,05,17,01,59,13.40
2014,05,17,02,00,13.40
2014,05,17,02,01,13.30
2014,05,17,02,02,13.30
2014,05,17,02,03,13.30
2014,05,17,02,04,13.30
2014,05,17,02,05,13.30
2014,05,17,02,06,13.30
2014,05,17,02,07,13.30
2014,05,17,02,08,13.30
2014,05,17,02,09,13.30
2014,05,17,02,10,13.30
2014,05,17,02,11,13.30
2014,05,17,02,12,13.30
2014,05,17,02,13,13.30
2014,05,17,02,14,13.30
2014,05,17,02,15,13.30
2014,05,17,02,16,13.30
2014,05,17,02,17,13.30
2014,05,17,02,18,13.30
2014,05,17,02,19,13.30
2014,05,17,02,20,13.30
2014,05,17,02,21,13.30
2014,05,17,02,22,13.30
2014,05,17,02,23,13.30
2014,05,17,02,24,13.30
2014,05,17,02,25,13.30
2014,05,17,02,26,13.30
2014,05,17,02,27,13.20
2014,05,17,02,28,13.20
2014,05,17,02,29,13.20
2014,05,17,02,30,13.20
2014,05,17,02,31,13.20
2014,05,17,02,32,13.20
2014,05,17,02,33,13.20
2014,05,17,02,34,13.20
2014,05,17,02,35,13.20
2014,05,17,02,36,13.20
2014,05,17,02,37,13.20
2014,05,17,02,38,13.20
2014,05,17,02,39,13.20
2014,05,17,02,40,13.20
2014,05,17,02,41,13.20
2014,05,17,02,42,13.20
2014,05,17,02,43,13.20
2014,05,17,02,44,13.20
2014,05,17,02,45,13.30
2014,05,17,02,46,13.20
2014,05,17,02,47,13.20
2014,05,17,02,48,13.20
2014,05,17,02,49,13.20
2014,05,17,02,50,13.20
2014,05,17,02,51,13.20
2014,05,17,02,52,13.20
2014,05,17,02,53,13.20
2014,05,17,02,54,13.20
2014,05,17,02,55,13.20
2014,05,17,02,56,13.20
2014,05,17,02,57,13.20
2014,05,17,02,58,13.10
2014,05,17,02,59,13.10
2014,05,17,03,00,13.10
2014,05,17,03,01,13.10
2014,05,17,03,02,13.10
2014,05,17,03,03,13.10
2014,05,17,03,04,13.10
2014,05,17,03,05,13.10
2014,05,17,03,06,13.10
2014,05,17,03,07,13.00
2014,05,17,03,08,13.00
2014,05,17,03,09,13.00
2014,05,17,03,10,13.00
2014,05,17,03,11,13.00
2014,05,17,03,12,13.00
2014,05,17,03,13,13.00
2014,05,17,03,14,13.00
2014,05,17,03,15,13.00
2014,05,17,03,16,13.00
2014,05,17,03,17,13.00
2014,05,17,03,18,13.10
2014,05,17,03,19,13.10
2014,05,17,03,20,13.10
2014,05,17,03,21,13.10
2014,05,17,03,22,13.10
2014,05,17,03,23,13.10
2014,05,17,03,24,13.10
2014,05,17,03,25,13.10
2014,05,17,03,26,13.10
2014,05,17,03,27,13.10
2014,05,17,03,28,13.10
2014,05,17,03,29,13.10
2014,05,17,03,30,13.10
2014,05,17,03,31,13.00
2014,05,17,03,32,13.00
2014,05,17,03,33,13.00
2014,05,17,03,34,13.00
2014,05,17,03,35,13.00
2014,05,17,03,36,12.90
2014,05,17,03,37,12.90
2014,05,17,03,38,12.90
2014,05,17,03,39,12.90
2014,05,17,03,40,12.90
2014,05,17,03,41,12.90
2014,05,17,03,42,12.90
2014,05,17,03,43,12.90
2014,05,17,03,44,12.90
2014,05,17,03,45,12.80
2014,05,17,03,46,12.80
2014,05,17,03,47,12.80
2014,05,17,03,48,12.80
2014,05,17,03,49,12.80
2014,05,17,03,50,12.80
2014,05,17,03,51,12.80
2014,05,17,03,52,12.80
2014,05,17,03,53,12.80
2014,05,17,03,54,12.80
2014,05,17,03,55,12.80
2014,05,17,03,56,12.80
2014,05,17,03,57,12.80
2014,05,17,03,58,12.80
2014,05,17,03,59,12.80
2014,05,17,04,00,12.90
2014,05,17,04,01,12.90
2014,05,17,04,02,12.90
2014,05,17,04,03,12.90
2014,05,17,04,04,12.90
2014,05,17,04,05,12.90
2014,05,17,04,06,12.90
2014,05,17,04,07,12.90
2014,05,17,04,08,13.00
2014,05,17,04,09,13.00
2014,05,17,04,10,13.00
2014,05,17,04,11,13.00
2014,05,17,04,12,13.10
2014,05,17,04,13,13.10
2014,05,17,04,14,13.10
2014,05,17,04,15,13.10
2014,05,17,04,16,13.10
2014,05,17,04,17,13.10
2014,05,17,04,18,13.10
2014,05,17,04,19,13.10
2014,05,17,04,20,13.00
2014,05,17,04,21,13.00
2014,05,17,04,22,13.00
2014,05,17,04,23,13.00
2014,05,17,04,24,13.00
2014,05,17,04,25,13.00
2014,05,17,04,26,13.00
2014,05,17,04,27,13.00
2014,05,17,04,28,12.90
2014,05,17,04,29,12.90
2014,05,17,04,30,12.90
2014,05,17,04,31,12.90
2014,05,17,04,32,12.90
2014,05,17,04,33,12.90
2014,05,17,04,34,12.90
2014,05,17,04,35,12.90
2014,05,17,04,36,12.90
2014,05,17,04,37,12.90
2014,05,17,04,38,12.90
2014,05,17,04,39,12.90
2014,05,17,04,40,12.90
2014,05,17,04,41,12.90
2014,05,17,04,42,12.90
2014,05,17,04,43,12.90
2014,05,17,04,44,12.90
2014,05,17,04,45,12.80
2014,05,17,04,46,12.80
2014,05,17,04,47,12.80
2014,05,17,04,48,12.80
2014,05,17,04,49,12.80
2014,05,17,04,50,12.80
2014,05,17,04,51,12.80
2014,05,17,04,52,12.80
2014,05,17,04,53,12.80
2014,05,17,04,54,12.70
2014,05,17,04,55,12.70
2014,05,17,04,56,12.70
2014,05,17,04,57,12.60
2014,05,17,04,58,12.60
2014,05,17,04,59,12.60
2014,05,17,05,00,12.60
2014,05,17,05,01,12.50
2014,05,17,05,02,12.50
2014,05,17,05,03,12.50
2014,05,17,05,04,12.40
2014,05,17,05,05,12.40
2014,05,17,05,06,12.40
2014,05,17,05,07,12.40
2014,05,17,05,08,12.30
2014,05,17,05,09,12.30
2014,05,17,05,10,12.30
2014,05,17,05,11,12.30
2014,05,17,05,12,12.30
2014,05,17,05,13,12.20
2014,05,17,05,14,12.20
2014,05,17,05,15,12.20
2014,05,17,05,16,12.20
2014,05,17,05,17,12.20
2014,05,17,05,18,12.20
2014,05,17,05,19,12.10
2014,05,17,05,20,12.10
2014,05,17,05,21,12.10
2014,05,17,05,22,12.10
2014,05,17,05,23,12.10
2014,05,17,05,24,12.10
2014,05,17,05,25,12.10
2014,05,17,05,26,12.10
2014,05,17,05,27,12.10
2014,05,17,05,28,12.10
2014,05,17,05,29,12.20
2014,05,17,05,30,12.20
2014,05,17,05,31,12.20
2014,05,17,05,32,12.20
2014,05,17,05,33,12.20
2014,05,17,05,34,12.20
2014,05,17,05,35,12.20
2014,05,17,05,36,12.20
2014,05,17,05,37,12.20
2014,05,17,05,38,12.10
2014,05,17,05,39,12.10
2014,05,17,05,40,12.10
2014,05,17,05,41,12.10
2014,05,17,05,42,12.10
2014,05,17,05,43,12.10
2014,05,17,05,44,12.10
2014,05,17,05,45,12.00
2014,05,17,05,46,12.00
2014,05,17,05,47,12.00
2014,05,17,05,48,12.00
2014,05,17,05,49,11.90
2014,05,17,05,50,11.90
2014,05,17,05,51,11.90
2014,05,17,05,52,11.90
2014,05,17,05,53,11.90
2014,05,17,05,54,11.90
2014,05,17,05,55,11.90
2014,05,17,05,56,11.80
2014,05,17,05,57,11.80
2014,05,17,05,58,11.80
2014,05,17,05,59,11.80
2014,05,17,06,00,11.80
2014,05,17,06,01,11.80
2014,05,17,06,02,11.80
2014,05,17,06,03,11.80
2014,05,17,06,04,11.80
2014,05,17,06,05,11.80
2014,05,17,06,06,11.80
2014,05,17,06,07,11.70
2014,05,17,06,08,11.70
2014,05,17,06,09,11.70
2014,05,17,06,10,11.70
2014,05,17,06,11,11.70
2014,05,17,06,12,11.70
2014,05,17,06,13,11.70
2014,05,17,06,14,11.70
2014,05,17,06,15,11.70
2014,05,17,06,16,11.70
2014,05,17,06,17,11.70
2014,05,17,06,18,11.70
2014,05,17,06,19,11.70
2014,05,17,06,20,11.60
2014,05,17,06,21,11.60
2014,05,17,06,22,11.60
2014,05,17,06,23,11.60
2014,05,17,06,24,11.60
2014,05,17,06,25,11.60
2014,05,17,06,26,11.60
2014,05,17,06,27,11.60
2014,05,17,06,28,11.60
2014,05,17,06,29,11.60
2014,05,17,06,30,11.60
2014,05,17,06,31,11.60
2014,05,17,06,32,11.60
2014,05,17,06,33,11.60
2014,05,17,06,34,11.60
2014,05,17,06,35,11.60
2014,05,17,06,36,11.60
2014,05,17,06,37,11.60
2014,05,17,06,38,11.60
2014,05,17,06,39,11.60
2014,05,17,06,40,11.60
2014,05,17,06,41,11.70
2014,05,17,06,42,11.70
2014,05,17,06,43,11.70
2014,05,17,06,44,11.70
2014,05,17,06,45,11.70
2014,05,17,06,46,11.80
2014,05,17,06,47,11.80
2014,05,17,06,48,11.80
2014,05,17,06,49,11.80
2014,05,17,06,50,11.80
2014,05,17,06,51,11.80
2014,05,17,06,52,11.80
2014,05,17,06,53,11.80
2014,05,17,06,54,11.90
2014,05,17,06,55,11.90
2014,05,17,06,56,11.90
2014,05,17,06,57,11.90
2014,05,17,06,58,11.80
2014,05,17,06,59,11.80
2014,05,17,07,00,11.80
2014,05,17,07,01,11.80
2014,05,17,07,02,11.80
2014,05,17,07,03,11.80
2014,05,17,07,04,11.80
2014,05,17,07,05,11.90
2014,05,17,07,06,11.90
2014,05,17,07,07,11.90
2014,05,17,07,08,11.90
2014,05,17,07,09,11.90
2014,05,17,07,10,11.90
2014,05,17,07,11,11.90
2014,05,17,07,12,11.90
2014,05,17,07,13,11.90
2014,05,17,07,14,11.90
2014,05,17,07,15,11.90
2014,05,17,07,16,11.90
2014,05,17,07,17,11.90
2014,05,17,07,18,11.90
2014,05,17,07,19,11.90
2014,05,17,07,20,11.90
2014,05,17,07,21,11.90
2014,05,17,07,22,12.00
2014,05,17,07,23,12.00
2014,05,17,07,24,12.00
2014,05,17,07,25,12.00
2014,05,17,07,26,12.00
2014,05,17,07,27,12.00
2014,05,17,07,28,12.10
2014,05,17,07,29,12.10
2014,05,17,07,30,12.10
2014,05,17,07,31,12.20
2014,05,17,07,32,12.20
2014,05,17,07,33,12.20
2014,05,17,07,34,12.30
2014,05,17,07,35,12.30
2014,05,17,07,36,12.30
2014,05,17,07,37,12.40
2014,05,17,07,38,12.40
2014,05,17,07,39,12.50
2014,05,17,07,40,12.50
2014,05,17,07,41,12.60
2014,05,17,07,42,12.60
2014,05,17,07,43,12.70
2014,05,17,07,44,12.70
2014,05,17,07,45,12.80
2014,05,17,07,46,12.80
2014,05,17,07,47,12.90
2014,05,17,07,48,12.90
2014,05,17,07,49,12.90
2014,05,17,07,50,12.90
2014,05,17,07,51,12.90
2014,05,17,07,52,13.00
2014,05,17,07,53,13.00
2014,05,17,07,54,13.00
2014,05,17,07,55,13.10
2014,05,17,07,56,13.10
2014,05,17,07,57,13.10
2014,05,17,07,58,13.20
2014,05,17,07,59,13.20
2014,05,17,08,00,13.30
2014,05,17,08,01,13.30
2014,05,17,08,02,13.40
2014,05,17,08,03,13.40
2014,05,17,08,04,13.50
2014,05,17,08,05,13.60
2014,05,17,08,06,13.60
2014,05,17,08,07,13.70
2014,05,17,08,08,13.80
2014,05,17,08,09,13.80
2014,05,17,08,10,13.90
2014,05,17,08,11,14.00
2014,05,17,08,12,14.00
2014,05,17,08,13,14.10
2014,05,17,08,14,14.20
2014,05,17,08,15,14.20
2014,05,17,08,16,14.30
2014,05,17,08,17,14.40
2014,05,17,08,18,14.50
2014,05,17,08,19,14.60
2014,05,17,08,20,14.70
2014,05,17,08,21,14.90
2014,05,17,08,22,15.00
2014,05,17,08,23,15.10
2014,05,17,08,24,15.20
2014,05,17,08,25,15.30
2014,05,17,08,26,15.40
2014,05,17,08,27,15.50
2014,05,17,08,28,15.60
2014,05,17,08,29,15.70
2014,05,17,08,30,15.80
2014,05,17,08,31,15.90
2014,05,17,08,32,16.00
2014,05,17,08,33,16.00
2014,05,17,08,34,16.10
2014,05,17,08,35,16.20
2014,05,17,08,36,16.20
2014,05,17,08,37,16.20
2014,05,17,08,38,16.20
2014,05,17,08,39,16.10
2014,05,17,08,40,16.10
2014,05,17,08,41,16.10
2014,05,17,08,42,16.10
2014,05,17,08,43,16.10
2014,05,17,08,44,16.20
2014,05,17,08,45,16.20
2014,05,17,08,46,16.20
2014,05,17,08,47,16.20
2014,05,17,08,48,16.20
2014,05,17,08,49,16.30
2014,05,17,08,50,16.30
2014,05,17,08,51,16.40
2014,05,17,08,52,16.40
2014,05,17,08,53,16.40
2014,05,17,08,54,16.40
2014,05,17,08,55,16.40
2014,05,17,08,56,16.40
2014,05,17,08,57,16.40
2014,05,17,08,58,16.50
2014,05,17,08,59,16.50
2014,05,17,09,00,16.60
2014,05,17,09,01,16.70
2014,05,17,09,02,16.70
2014,05,17,09,03,16.80
2014,05,17,09,04,16.80
2014,05,17,09,05,16.80
2014,05,17,09,06,16.80
2014,05,17,09,07,16.80
2014,05,17,09,08,16.90
2014,05,17,09,09,16.90
2014,05,17,09,10,16.90
2014,05,17,09,11,17.00
2014,05,17,09,12,17.00
2014,05,17,09,13,16.90
2014,05,17,09,14,16.90
2014,05,17,09,15,17.00
2014,05,17,09,16,17.00
2014,05,17,09,17,17.00
2014,05,17,09,18,17.00
2014,05,17,09,19,17.00
2014,05,17,09,20,17.00
2014,05,17,09,21,17.10
2014,05,17,09,22,17.20
2014,05,17,09,23,17.20
2014,05,17,09,24,17.20
2014,05,17,09,25,17.10
2014,05,17,09,26,17.10
2014,05,17,09,27,17.10
2014,05,17,09,28,17.00
2014,05,17,09,29,17.00
2014,05,17,09,30,16.90
2014,05,17,09,31,16.90
2014,05,17,09,32,17.00
2014,05,17,09,33,17.10
2014,05,17,09,34,17.10
2014,05,17,09,35,17.20
2014,05,17,09,36,17.20
2014,05,17,09,37,17.20
2014,05,17,09,38,17.20
2014,05,17,09,39,17.20
2014,05,17,09,40,17.30
2014,05,17,09,41,17.30
2014,05,17,09,42,17.30
2014,05,17,09,43,17.40
2014,05,17,09,44,17.40
2014,05,17,09,45,17.50
2014,05,17,09,46,17.60
2014,05,17,09,47,17.60
2014,05,17,09,48,17.60
2014,05,17,09,49,17.70
2014,05,17,09,50,17.80
2014,05,17,09,51,17.80
2014,05,17,09,52,17.90
2014,05,17,09,53,17.90
2014,05,17,09,54,18.00
2014,05,17,09,55,18.00
2014,05,17,09,56,17.90
2014,05,17,09,57,17.90
2014,05,17,09,58,17.90
2014,05,17,09,59,18.00
2014,05,17,10,00,18.00
2014,05,17,10,01,18.00
2014,05,17,10,02,17.90
2014,05,17,10,03,17.80
2014,05,17,10,04,17.80
2014,05,17,10,05,17.80
2014,05,17,10,06,17.70
2014,05,17,10,07,17.70
2014,05,17,10,08,17.70
2014,05,17,10,09,17.70
2014,05,17,10,10,17.80
2014,05,17,10,11,17.80
2014,05,17,10,12,17.90
2014,05,17,10,13,18.00
2014,05,17,10,14,18.10
2014,05,17,10,15,18.10
2014,05,17,10,16,18.10
2014,05,17,10,17,18.10
2014,05,17,10,18,18.10
2014,05,17,10,19,18.20
2014,05,17,10,20,18.30
2014,05,17,10,21,18.40
2014,05,17,10,22,18.50
2014,05,17,10,23,18.50
2014,05,17,10,24,18.50
2014,05,17,10,25,18.60
2014,05,17,10,26,18.60
2014,05,17,10,27,18.70
2014,05,17,10,28,18.70
2014,05,17,10,29,18.70
2014,05,17,10,30,18.70
2014,05,17,10,31,18.70
2014,05,17,10,32,18.60
2014,05,17,10,33,18.50
2014,05,17,10,34,18.20
2014,05,17,10,35,18.10
2014,05,17,10,36,18.00
2014,05,17,10,37,18.00
2014,05,17,10,38,18.00
2014,05,17,10,39,18.00
2014,05,17,10,40,18.00
2014,05,17,10,41,18.00
2014,05,17,10,42,18.00
2014,05,17,10,43,18.00
2014,05,17,10,44,18.10
2014,05,17,10,45,18.20
2014,05,17,10,46,18.20
2014,05,17,10,47,18.30
2014,05,17,10,48,18.30
2014,05,17,10,49,18.30
2014,05,17,10,50,18.30
2014,05,17,10,51,18.30
2014,05,17,10,52,18.20
2014,05,17,10,53,18.20
2014,05,17,10,54,18.30
2014,05,17,10,55,18.30
2014,05,17,10,56,18.40
2014,05,17,10,57,18.40
2014,05,17,10,58,18.50
2014,05,17,10,59,18.60
2014,05,17,11,00,18.60
2014,05,17,11,01,18.70
2014,05,17,11,02,18.70
2014,05,17,11,03,18.70
2014,05,17,11,04,18.60
2014,05,17,11,05,18.50
2014,05,17,11,06,18.40
2014,05,17,11,07,18.30
2014,05,17,11,08,18.30
2014,05,17,11,09,18.30
2014,05,17,11,10,18.40
2014,05,17,11,11,18.40
2014,05,17,11,12,18.40
2014,05,17,11,13,18.40
2014,05,17,11,14,18.40
2014,05,17,11,15,18.40
2014,05,17,11,16,18.30
2014,05,17,11,17,18.30
2014,05,17,11,18,18.30
2014,05,17,11,19,18.30
2014,05,17,11,20,18.30
2014,05,17,11,21,18.30
2014,05,17,11,22,18.30
2014,05,17,11,23,18.30
2014,05,17,11,24,18.20
2014,05,17,11,25,18.20
2014,05,17,11,26,18.30
2014,05,17,11,27,18.40
2014,05,17,11,28,18.40
2014,05,17,11,29,18.50
2014,05,17,11,30,18.50
2014,05,17,11,31,18.60
2014,05,17,11,32,18.60
2014,05,17,11,33,18.60
2014,05,17,11,34,18.50
2014,05,17,11,35,18.50
2014,05,17,11,36,18.40
2014,05,17,11,37,18.40
2014,05,17,11,38,18.30
2014,05,17,11,39,18.20
2014,05,17,11,40,18.10
2014,05,17,11,41,18.00
2014,05,17,11,42,17.90
2014,05,17,11,43,17.80
2014,05,17,11,44,17.80
2014,05,17,11,45,17.80
2014,05,17,11,46,17.80
2014,05,17,11,47,17.90
2014,05,17,11,48,17.90
2014,05,17,11,49,18.00
2014,05,17,11,50,18.10
2014,05,17,11,51,18.30
2014,05,17,11,52,18.30
2014,05,17,11,53,18.40
2014,05,17,11,54,18.50
2014,05,17,11,55,18.50
2014,05,17,11,56,18.50
2014,05,17,11,57,18.50
2014,05,17,11,58,18.40
2014,05,17,11,59,18.30
2014,05,17,12,00,18.10
2014,05,17,12,01,18.00
2014,05,17,12,02,17.90
2014,05,17,12,03,17.90
2014,05,17,12,04,17.90
2014,05,17,12,05,17.90
2014,05,17,12,06,17.90
2014,05,17,12,07,18.00
2014,05,17,12,08,18.10
2014,05,17,12,09,18.20
2014,05,17,12,10,18.20
2014,05,17,12,11,18.20
2014,05,17,12,12,18.30
2014,05,17,12,13,18.20
2014,05,17,12,14,18.20
2014,05,17,12,15,18.20
2014,05,17,12,16,18.10
2014,05,17,12,17,18.00
2014,05,17,12,18,17.90
2014,05,17,12,19,17.80
2014,05,17,12,20,17.70
2014,05,17,12,21,17.70
2014,05,17,12,22,17.70
2014,05,17,12,23,17.70
2014,05,17,12,24,17.70
2014,05,17,12,25,17.80
2014,05,17,12,26,17.90
2014,05,17,12,27,18.00
2014,05,17,12,28,18.10
2014,05,17,12,29,18.20
2014,05,17,12,30,18.30
2014,05,17,12,31,18.40
2014,05,17,12,32,18.50
2014,05,17,12,33,18.60
2014,05,17,12,34,18.60
2014,05,17,12,35,18.50
2014,05,17,12,36,18.50
2014,05,17,12,37,18.40
2014,05,17,12,38,18.40
2014,05,17,12,39,18.40
2014,05,17,12,40,18.40
2014,05,17,12,41,18.30
2014,05,17,12,42,18.30
2014,05,17,12,43,18.30
2014,05,17,12,44,18.30
2014,05,17,12,45,18.20
2014,05,17,12,46,18.10
2014,05,17,12,47,18.10
2014,05,17,12,48,18.00
2014,05,17,12,49,18.00
2014,05,17,12,50,18.00
2014,05,17,12,51,17.90
2014,05,17,12,52,17.90
2014,05,17,12,53,17.90
2014,05,17,12,54,17.90
2014,05,17,12,55,17.80
2014,05,17,12,56,17.90
2014,05,17,12,57,18.00
2014,05,17,12,58,18.10
2014,05,17,12,59,18.30
2014,05,17,13,00,18.30
2014,05,17,13,01,18.30
2014,05,17,13,02,18.30
2014,05,17,13,03,18.20
2014,05,17,13,04,18.20
2014,05,17,13,05,18.20
2014,05,17,13,06,18.20
2014,05,17,13,07,18.20
2014,05,17,13,08,18.20
2014,05,17,13,09,18.20
2014,05,17,13,10,18.20
2014,05,17,13,11,18.20
2014,05,17,13,12,18.20
2014,05,17,13,13,18.20
2014,05,17,13,14,18.20
2014,05,17,13,15,18.20
2014,05,17,13,16,18.10
2014,05,17,13,17,18.10
2014,05,17,13,18,18.20
2014,05,17,13,19,18.30
2014,05,17,13,20,18.30
2014,05,17,13,21,18.30
2014,05,17,13,22,18.30
2014,05,17,13,23,18.30
2014,05,17,13,24,18.30
2014,05,17,13,25,18.20
2014,05,17,13,26,18.20
2014,05,17,13,27,18.20
2014,05,17,13,28,18.20
2014,05,17,13,29,18.20
2014,05,17,13,30,18.20
2014,05,17,13,31,18.30
2014,05,17,13,32,18.40
2014,05,17,13,33,18.40
2014,05,17,13,34,18.40
2014,05,17,13,35,18.40
2014,05,17,13,36,18.50
2014,05,17,13,37,18.50
2014,05,17,13,38,18.60
2014,05,17,13,39,18.70
2014,05,17,13,40,18.80
2014,05,17,13,41,18.80
2014,05,17,13,42,18.80
2014,05,17,13,43,18.80
2014,05,17,13,44,18.80
2014,05,17,13,45,18.80
2014,05,17,13,46,18.80
2014,05,17,13,47,18.70
2014,05,17,13,48,18.60
2014,05,17,13,49,18.60
2014,05,17,13,50,18.50
2014,05,17,13,51,18.40
2014,05,17,13,52,18.40
2014,05,17,13,53,18.40
2014,05,17,13,54,18.40
2014,05,17,13,55,18.40
2014,05,17,13,56,18.40
2014,05,17,13,57,18.40
2014,05,17,13,58,18.40
2014,05,17,13,59,18.50
2014,05,17,14,00,18.60
2014,05,17,14,01,18.70
2014,05,17,14,02,18.80
2014,05,17,14,03,18.90
2014,05,17,14,04,19.00
2014,05,17,14,05,19.10
2014,05,17,14,06,19.20
2014,05,17,14,07,19.10
2014,05,17,14,08,19.10
2014,05,17,14,09,19.10
2014,05,17,14,10,19.00
2014,05,17,14,11,18.90
2014,05,17,14,12,18.90
2014,05,17,14,13,18.90
2014,05,17,14,14,18.80
2014,05,17,14,15,18.80
2014,05,17,14,16,18.80
2014,05,17,14,17,18.90
2014,05,17,14,18,19.00
2014,05,17,14,19,19.00
2014,05,17,14,20,19.00
2014,05,17,14,21,19.10
2014,05,17,14,22,19.00
2014,05,17,14,23,18.90
2014,05,17,14,24,18.80
2014,05,17,14,25,18.70
2014,05,17,14,26,18.70
2014,05,17,14,27,18.80
2014,05,17,14,28,18.80
2014,05,17,14,29,18.80
2014,05,17,14,30,18.90
2014,05,17,14,31,18.90
2014,05,17,14,32,18.90
2014,05,17,14,33,19.00
2014,05,17,14,34,19.00
2014,05,17,14,35,19.10
2014,05,17,14,36,19.20
2014,05,17,14,37,19.20
2014,05,17,14,38,19.10
2014,05,17,14,39,19.10
2014,05,17,14,40,19.00
2014,05,17,14,41,19.00
2014,05,17,14,42,19.00
2014,05,17,14,43,19.00
2014,05,17,14,44,19.10
2014,05,17,14,45,19.00
2014,05,17,14,46,19.00
2014,05,17,14,47,18.90
2014,05,17,14,48,18.80
2014,05,17,14,49,18.80
2014,05,17,14,50,18.80
2014,05,17,14,51,18.80
2014,05,17,14,52,18.90
2014,05,17,14,53,19.00
2014,05,17,14,54,19.10
2014,05,17,14,55,19.10
2014,05,17,14,56,19.10
2014,05,17,14,57,19.20
2014,05,17,14,58,19.30
2014,05,17,14,59,19.30
2014,05,17,15,00,19.40
2014,05,17,15,01,19.40
2014,05,17,15,02,19.40
2014,05,17,15,03,19.40
2014,05,17,15,04,19.40
2014,05,17,15,05,19.20
2014,05,17,15,06,19.20
2014,05,17,15,07,19.10
2014,05,17,15,08,19.00
2014,05,17,15,09,19.00
2014,05,17,15,10,18.90
2014,05,17,15,11,18.90
2014,05,17,15,12,18.80
2014,05,17,15,13,18.80
2014,05,17,15,14,18.80
2014,05,17,15,15,18.90
2014,05,17,15,16,18.90
2014,05,17,15,17,19.10
2014,05,17,15,18,19.10
2014,05,17,15,19,19.20
2014,05,17,15,20,19.30
2014,05,17,15,21,19.30
2014,05,17,15,22,19.40
2014,05,17,15,23,19.60
2014,05,17,15,24,19.70
2014,05,17,15,25,19.80
2014,05,17,15,26,19.80
2014,05,17,15,27,19.80
2014,05,17,15,28,19.80
2014,05,17,15,29,19.70
2014,05,17,15,30,19.60
2014,05,17,15,31,19.60
2014,05,17,15,32,19.50
2014,05,17,15,33,19.40
2014,05,17,15,34,19.30
2014,05,17,15,35,19.30
2014,05,17,15,36,19.20
2014,05,17,15,37,19.10
2014,05,17,15,38,19.00
2014,05,17,15,39,18.90
2014,05,17,15,40,18.90
2014,05,17,15,41,18.90
2014,05,17,15,42,18.90
2014,05,17,15,43,18.90
2014,05,17,15,44,18.90
2014,05,17,15,45,18.80
2014,05,17,15,46,18.80
2014,05,17,15,47,18.70
2014,05,17,15,48,18.70
2014,05,17,15,49,18.60
2014,05,17,15,50,18.60
2014,05,17,15,51,18.60
2014,05,17,15,52,18.70
2014,05,17,15,53,18.70
2014,05,17,15,54,18.80
2014,05,17,15,55,18.80
2014,05,17,15,56,18.80
2014,05,17,15,57,18.90
2014,05,17,15,58,18.90
2014,05,17,15,59,19.00
2014,05,17,16,00,19.00
2014,05,17,16,01,19.10
2014,05,17,16,02,19.10
2014,05,17,16,03,19.10
2014,05,17,16,04,19.10
2014,05,17,16,05,19.10
2014,05,17,16,06,19.00
2014,05,17,16,07,18.80
2014,05,17,16,08,18.70
2014,05,17,16,09,18.70
2014,05,17,16,10,18.60
2014,05,17,16,11,18.60
2014,05,17,16,12,18.60
2014,05,17,16,13,18.60
2014,05,17,16,14,18.60
2014,05,17,16,15,18.50
2014,05,17,16,16,18.40
2014,05,17,16,17,18.20
2014,05,17,16,18,18.10
2014,05,17,16,19,18.10
2014,05,17,16,20,18.10
2014,05,17,16,21,18.00
2014,05,17,16,22,18.00
2014,05,17,16,23,18.00
2014,05,17,16,24,18.00
2014,05,17,16,25,18.00
2014,05,17,16,26,18.10
2014,05,17,16,27,18.10
2014,05,17,16,28,18.20
2014,05,17,16,29,18.20
2014,05,17,16,30,18.20
2014,05,17,16,31,18.10
2014,05,17,16,32,18.00
2014,05,17,16,33,18.00
2014,05,17,16,34,18.00
2014,05,17,16,35,18.00
2014,05,17,16,36,17.90
2014,05,17,16,37,17.90
2014,05,17,16,38,17.90
2014,05,17,16,39,17.90
2014,05,17,16,40,17.90
2014,05,17,16,41,17.80
2014,05,17,16,42,17.80
2014,05,17,16,43,17.80
2014,05,17,16,44,17.80
2014,05,17,16,45,17.80
2014,05,17,16,46,17.80
2014,05,17,16,47,17.70
2014,05,17,16,48,17.70
2014,05,17,16,49,17.70
2014,05,17,16,50,17.70
2014,05,17,16,51,17.70
2014,05,17,16,52,17.70
2014,05,17,16,53,17.80
2014,05,17,16,54,17.80
2014,05,17,16,55,17.70
2014,05,17,16,56,17.70
2014,05,17,16,57,17.70
2014,05,17,16,58,17.70
2014,05,17,16,59,17.70
2014,05,17,17,00,17.70
2014,05,17,17,01,17.70
2014,05,17,17,02,17.70
2014,05,17,17,03,17.60
2014,05,17,17,04,17.60
2014,05,17,17,05,17.60
2014,05,17,17,06,17.60
2014,05,17,17,07,17.60
2014,05,17,17,08,17.60
2014,05,17,17,09,17.60
2014,05,17,17,10,17.50
2014,05,17,17,11,17.50
2014,05,17,17,12,17.40
2014,05,17,17,13,17.40
2014,05,17,17,14,17.40
2014,05,17,17,15,17.40
2014,05,17,17,16,17.40
2014,05,17,17,17,17.40
2014,05,17,17,18,17.30
2014,05,17,17,19,17.30